User: anonymous   Login
Location: Albany
(35.0000°S, 118.0000°E)
Time: 13:50:11
(UTC-05:00)
Language:

Radarsat Rocket - Orbit

View from above orbital plane
View from above orbital plane
View from above satellite
View from above satellite

Ground track
Ground track

The orbit data is extracted from the following two-line orbital elements,

1 23711U 95059B   18051.93368459 -.00000055 +00000-0 -24417-4 0  9998
2 23711 100.5840 045.8400 0368433 116.6273 300.0202 13.12700099068258
Epoch (UTC): 20 February 2018 22:24:30
Eccentricity: 0.0368433
inclination: 100.5840°
perigee height: 933 km
apogee height: 1492 km
right ascension of ascending node: 45.8400°
argument of perigee: 116.6273°
revolutions per day: 13.12700099
mean anomaly at epoch: 300.0202°
orbit number at epoch: 6825

The dashed part of the orbit path shows where the satellite is in the earth's shadow,  

DLR